Simultaneous Nadir Overpasses (SNOs) Predictions

Prediction of SNOs between GOES-14 and AQUA Satellite Orbit:

Table of predicted SNOs for the next 14.0 days since TLE Epoch: 2/27/2021
Index Date Time (GOES-14) GOES-14 Lat,Lon AQUA Lat,Lon Distance(km) Time Diff (sec)
1 02/27/2021 20:17:53 -0.03,-104.21 0.68,-101.01 364.88 80
2 02/28/2021 08:39:08 0.04,-104.39 0.42,-106.16 201.59 80
3 03/02/2021 08:29:37 0.04,-104.40 -0.24,-103.21 135.85 80
4 03/02/2021 20:51:00 -0.04,-104.24 -0.91,-108.39 471.59 80
5 03/04/2021 08:17:25 0.03,-104.41 -0.84,-100.25 473.16 80
6 03/04/2021 20:38:48 -0.04,-104.24 -0.30,-105.43 134.72 80
7 03/06/2021 20:23:57 -0.04,-104.25 0.36,-102.48 201.88 80
8 03/07/2021 08:45:13 0.05,-104.40 0.73,-107.63 367.55 80
9 03/09/2021 08:33:01 0.05,-104.41 0.13,-104.67 30.39 80
10 03/11/2021 08:23:30 0.05,-104.42 -0.55,-101.72 307.23 80
11 03/11/2021 20:44:53 -0.06,-104.28 -0.59,-106.90 297.38 80
